Simultaneous Nadir Overpasses (SNOs) Predictions

Prediction of SNOs between GOES-14 and NPP Satellite Orbit:

Table of predicted SNOs for the next 14.0 days since TLE Epoch: 2/24/2024
Index Date Time (GOES-14) GOES-14 Lat,Lon NPP Lat,Lon Distance(km) Time Diff (sec)
1 02/26/2024 08:37:06 0.06,-108.36 0.06,-108.25 12.70 80
2 02/28/2024 20:42:56 -0.06,-108.37 -0.21,-109.02 74.12 80
3 02/29/2024 20:21:31 -0.05,-108.36 0.80,-104.48 441.99 80
4 03/02/2024 08:45:57 0.07,-108.33 0.39,-109.74 160.62 80
5 03/03/2024 08:24:32 0.06,-108.32 -0.62,-105.21 354.95 80
6 03/04/2024 20:46:26 -0.07,-108.32 -0.59,-110.50 248.78 80
7 03/05/2024 20:30:20 -0.07,-108.31 0.43,-105.96 266.91 80
8 03/07/2024 08:52:07 0.08,-108.28 0.75,-111.23 335.86 80
9 03/08/2024 08:30:41 0.08,-108.27 -0.27,-106.69 179.51 80
